Ord, NE

7:55 PM CST on February 25, 2017 (GMT -0600)
Sharp

Weather History for KODX - April, 2013

Change the Weather History Date:

Friday, April 5, 2013

  Actual Average Record
Temperature  
Mean Temperature 53 °F 45 °F  
Max Temperature 74 °F 58 °F 75 °F (2006)
Min Temperature 32 °F 32 °F 21 °F (2007)
Degree Days  
Heating Degree Days 12 20  
Month to date heating degree days 109 102  
Since 1 July heating degree days 6050 5965  
Cooling Degree Days 0 0  
Month to date cooling degree days 0 0  
Year to date cooling degree days 0 0  
Growing Degree Days 3 (Base 50)    
Moisture  
Dew Point 30 °F    
Average Humidity 46    
Maximum Humidity 70    
Minimum Humidity 22    
Precipitation  
Precipitation 0.00 in 0.05 in 0.88 in (1947)
Month to date precipitation 0.00 0.26  
Year to date precipitation 2.23 2.52  
Sea Level Pressure  
Sea Level Pressure 29.89 in    
Wind  
Wind Speed 14 mph (SSE)    
Max Wind Speed 24 mph    
Max Gust Speed 32 mph    
Visibility 10 miles    
Events      
T = Trace of Precipitation, MM = Missing Value Source: NWS Daily Summary

Daily Weather History Graph

Daily Weather History Graph

Search for Another Location

Airport or City:

Trip Planner

Search our weather history database for the weather conditions in past years. The results will help you decide how hot, cold, wet, or windy it might be!

Date:

Astronomy

Apr. 05, 2013 Rise Set
Actual Time 7:11 AM CDT 8:05 PM CDT
Civil Twilight 6:43 AM CDT 8:34 PM CDT
Nautical Twilight 6:09 AM CDT 9:07 PM CDT
Astronomical Twilight 5:35 AM CDT 9:42 PM CDT
Moon 4:23 AM CDT (4/5) 3:28 PM CDT (4/5)
Length of Visible Light 13h 50m
Length of Day
12h 54m
Waning Crescent, 23% of the Moon is Illuminated
Apr 5
Waning Crescent
Apr 10
New
Apr 18
First Quarter
Apr 25
Full
May 2
Last Quarter

Hourly Weather History & Observations

Time (CDT) Temp. Windchill Dew Point Humidity Pressure Visibility Wind Dir Wind Speed Gust Speed Precip Events Conditions
12:53 AM 42.1 °F 38.4 °F 21.0 °F 43% 30.10 in 10.0 mi SE 5.8 mph - N/A   Clear
1:53 AM 37.0 °F - 19.9 °F 50% 30.11 in 10.0 mi Calm Calm - N/A   Clear
2:53 AM 35.1 °F - 21.9 °F 59% 30.11 in 10.0 mi Calm Calm - N/A   Clear
3:53 AM 37.0 °F - 21.9 °F 54% 30.10 in 10.0 mi Calm Calm - N/A   Clear
4:53 AM 35.1 °F 31.0 °F 25.0 °F 67% 30.09 in 10.0 mi ESE 4.6 mph - N/A   Clear
5:53 AM 37.0 °F 30.4 °F 26.1 °F 65% 30.08 in 10.0 mi SE 9.2 mph - N/A   Clear
6:53 AM 36.0 °F 29.0 °F 27.0 °F 70% 30.07 in 10.0 mi ESE 9.2 mph - N/A   Clear
7:53 AM 37.0 °F 28.9 °F 28.0 °F 70% 30.06 in 10.0 mi SE 12.7 mph 18.4 mph N/A   Clear
8:53 AM 39.0 °F 30.6 °F 28.9 °F 67% 30.05 in 10.0 mi SE 15.0 mph 23.0 mph N/A   Clear
9:53 AM 45.0 °F 38.2 °F 30.9 °F 58% 30.02 in 10.0 mi SE 15.0 mph 23.0 mph N/A   Clear
10:53 AM 51.1 °F - 33.1 °F 50% 29.97 in 10.0 mi SSE 16.1 mph 31.1 mph N/A   Clear
11:53 AM 57.9 °F - 32.0 °F 37% 29.93 in 10.0 mi SSE 20.7 mph 31.1 mph N/A   Clear
12:53 PM 63.0 °F - 30.9 °F 30% 29.87 in 10.0 mi South 26.5 mph 34.5 mph N/A   Clear
1:53 PM 64.9 °F - 28.0 °F 25% 29.82 in 10.0 mi South 24.2 mph 32.2 mph N/A   Clear
2:53 PM 70.0 °F - 30.0 °F 23% 29.76 in 10.0 mi South 26.5 mph 34.5 mph N/A   Clear
3:53 PM 71.1 °F - 30.0 °F 22% 29.73 in 10.0 mi South 23.0 mph 39.1 mph N/A   Clear
4:53 PM 70.0 °F - 30.0 °F 23% 29.70 in 10.0 mi South 24.2 mph 34.5 mph N/A   Clear
6:53 PM 71.1 °F - 30.9 °F 23% 29.64 in 10.0 mi South 20.7 mph 31.1 mph N/A   Clear
7:53 PM 66.0 °F - 33.1 °F 29% 29.64 in 10.0 mi South 23.0 mph 31.1 mph N/A   Unknown
8:53 PM 62.1 °F - 35.1 °F 37% 29.64 in 10.0 mi South 13.8 mph - N/A   Clear
9:53 PM 61.0 °F - 37.9 °F 42% 29.64 in 10.0 mi South 12.7 mph - N/A   Clear
10:53 PM 59.0 °F - 39.9 °F 49% 29.63 in 10.0 mi South 12.7 mph - N/A   Clear
11:53 PM 57.9 °F - 39.9 °F 51% 29.60 in 10.0 mi South 11.5 mph - N/A   Clear